Location: Palomar Mountain Lodge
(33.3110°N, 116.8495°W)
Time: 19:11:59
(UTC-07:00)

Cosmos 1975 - Pass Details

Date: 19 May 2017
Orbit: 542 x 565 km, 82.5° (Epoch: 19 August)

Event Time Altitude Azimuth Distance (km) Brightness Sun altitude
Rises 20:44:00 0° 6° (N) 2,731 6.8 -11.8°
Reaches altitude 10° 20:46:23 10° 17° (NNE) 1,837 5.7 -12.2°
Maximum altitude 20:49:56 29° 79° (E) 1,028 3.8 -12.8°
Enters shadow 20:51:43 21° 121° (ESE) 1,279 4.0 -13.2°
